COSMOS 2251 DEB, 34059

Orbit data source: Space-Track

COSMOS 2251 DEB, 34059 is space debris in LEO originally from a launch on Wed, 16 Jun 1993 UTC launched from the Plesetsk Missile And Space Complex (PKMTR). The debris from Iridium 33, an American commercial communications satellite, has been tracked extensively since its accidental collision with the defunct Russian satellite Cosmos 2251 in 2009. This event, occurring at high speed in low Earth orbit (LEO), generated thousands of pieces of space debris, significantly increasing the risk of further collisions. The Iridium 33 debris cloud has impacted space traffic management and orbital debris mitigation strategies, making it a subject of ongoing study in space situational awareness.

Loading next visibility...
Identifier
34059, 1993-036JW
Orbit
LEO
Country
Flag of CISCIS
Related business
Manufacturer
Unknown
Mission
Spacecraft
Bus & Motor
Unknown
Mass
Unknown
Launch date (UTC)
1993-06-16 (33 years ago)
Launch vehicle
Unknown
Launch site
Plesetsk Missile And Space Complex (PKMTR)
Object type
Payload
Rocket body
Debris
Shape & HBR
Unknown shape, 0.2 m
Radar Cross Section
Small (<0.1 m²)

Expand to show TLE details & history
Last TLE update: 12 hours ago

TLE from 12 hours ago
0 COSMOS 2251 DEB
1 34059U 93036JW  26106.66682744  .00001225  00000-0  29826-3 0  9990
2 34059  74.0372 310.4322 0016909 357.9124  65.6199 14.53776519902743
Epoch: 2026-04-16T16:00Z
TLE epoch observation values (Epoch: 2026-04-16T16:00:13.890Z)
Latitude
59.64691°
Longitude
-105.36902°
Altitude
718.185 km
Speed
7.505 km/s
True Right ascension
22h 37m 59s
True Declination
59° 29' 45"
Sunlit
Object was in daylight at epoch
Visualization orbit readout
Latitude
Unknown
Longitude
Unknown
Altitude
Unknown
Speed
Unknown
Apparent Right ascension
Unknown
Apparent Declination
Unknown
Sunlit
N/A
Visualization observer readout
Local Sidereal Time
10:42:24
Azimuth
Unknown
Elevation
Unknown
Doppler factor
Unknown
Orbital elements
Apogee altitude
722.932 km
Perigee altitude
698.958 km
Semi-major axis
7,089.082 km
Eccentricity
0.00169
Inclination
74.0372°
RAAN
310.4322°
Arg. of periapsis
357.9124°
True anomaly
65.79654°
Mean anomaly
65.6199°
Eccentric anomaly
65.7082°
Mean motion
3.63629 °/min
Orbital period
99 mins
BSTAR
0.00029826
Loading maneuver chart data...
Computing Atmospheric mass density...

Documentation

Showing up to 5 results
|